User: anonymous   Login
Location: Haut Kerinec
(48.0623°N, 4.4081°W)
Time: 19:52:53
(UTC+00:00)
Language:

Cosmos 1242 Rocket - Orbit

View from above orbital plane
View from above orbital plane
View from above satellite
View from above satellite

Ground track
Ground track

The orbit data is extracted from the following two-line orbital elements,

1 12155U 81008B   21169.55786723  .00001552  00000-0  46187-4 0  9996
2 12155  81.1614 122.7960 0028039  15.5232 344.6859 15.33656050184550
Epoch (UTC): 18 June 2021 13:23:19
Eccentricity: 0.0028039
inclination: 81.1614°
perigee height: 446 km
apogee height: 484 km
right ascension of ascending node: 122.7960°
argument of perigee: 15.5232°
revolutions per day: 15.33656050
mean anomaly at epoch: 344.6859°
orbit number at epoch: 18455

The dashed part of the orbit path shows where the satellite is in the earth's shadow,  

DLR